Temp
24 24 24 24 24 24 24 24 25 25 25 25 25 25 25 25 25 25 25 25 25 25 25 25 25 25 25 25 25 25 25 24 24 24 24 24 24 24 24 24 24 24 24 24 24 24 24 25 25 25 25 25 25 25 26 26 26 26 26 26 27 26 26 25 24 24 26 26 26 26 26 26 26 26 26 26 27 27 27 27 27 27 27 27 27
24 24 24 24 24 24 24 24 25 25 25 25 25 25 25 25 25 25 25 25 25 25 25 25 25 25 25 25 25 25 25 25 25 24 24 24 24 24 24 24 24 24 24 24 24 25 24 24 25 25 25 25 25 25 25 26 26 26 26 26 26 26 26 26 25 24 25 26 26 26 26 26 26 26 26 26 26 26 27 27 27 27 27 27 27
24 24 24 24 24 24 24 24 25 25 25 25 25 25 25 25 25 25 25 25 25 25 25 25 25 25 25 25 25 25 25 25 25 25 24 24 24 24 24 24 24 24 24 25 25 25 25 24 25 25 25 25 25 25 26 26 26 26 26 26 26 26 26 26 25 25 25 25 26 26 26 26 26 26 26 26 26 26 26 26 27 27 27 27 27
24 24 24 24 24 24 24 24 24 25 25 25 25 25 25 25 25 25 25 25 25 25 25 25 25 25 25 25 25 25 25 25 25 25 24 25 24 24 24 24 24 24 24 25 25 25 25 25 25 25 25 25 25 25 26 26 26 26 26 26 26 26 26 26 26 25 25 25 25 26 25 25 26 26 26 26 26 26 26 26 26 26 26 26 26
24 24 24 24 24 24 24 24 24 24 25 25 25 25 25 25 25 25 25 25 25 25 25 25 25 25 25 25 25 25 25 25 25 25 25 25 25 25 25 25 25 25 25 25 25 25 25 25 25 25 25 25 25 25 26 26 26 26 26 26 26 26 26 26 26 26 25 25 25 25 25 25 26 26 26 26 26 26 26 26 26 26 26 26 26
24 24 24 24 24 24 24 24 24 24 25 25 25 25 25 25 25 25 25 25 25 25 25 25 25 25 25 25 25 25 25 25 25 25 25 25 25 25 25 25 25 25 25 25 25 25 25 25 25 25 25 25 25 25 26 26 26 26 26 26 26 26 26 26 26 26 26 25 25 25 25 25 25 26 26 26 26 26 26 26 26 26 26 26 26
23 23 24 24 24 24 24 24 24 24 25 25 25 25 25 25 25 25 26 26 26 26 25 25 25 25 25 25 25 25 25 25 25 25 25 25 25 25 25 25 25 25 25 25 25 25 25 25 25 25 25 25 25 25 26 26 26 26 26 26 26 26 26 26 26 26 26 26 25 25 25 25 25 25 26 26 26 25 25 25 25 26 25 25 25
23 23 23 23 24 24 24 24 24 25 25 25 25 25 25 25 25 25 25 26 26 26 26 26 26 26 26 25 25 25 25 25 25 25 25 25 25 25 25 25 25 25 25 25 25 25 25 25 25 25 25 25 25 26 26 26 26 26 26 26 26 26 26 26 26 26 26 25 25 25 25 25 25 25 26 26 25 25 24 24 24 24 24 24 25
24 24 23 23 23 24 24 24 24 25 25 25 25 25 25 25 25 25 25 25 26 26 26 26 26 26 26 25 25 25 25 25 25 25 25 25 25 25 25 25 25 25 25 25 25 25 25 25 25 25 25 25 25 26 26 26 26 26 26 26 26 26 26 26 26 26 26 25 25 25 25 25 25 25 25 25 24 24 24 24 24 24 24 24 24
23 23 23 23 24 24 24 24 24 25 25 25 25 25 25 25 25 25 25 25 26 26 26 26 26 26 26 26 25 25 25 25 25 25 25 25 25 25 25 25 25 25 25 25 25 25 25 25 25 25 25 26 26 26 26 26 26 26 26 26 26 26 26 26 26 26 25 25 25 25 25 25 25 25 24 24 24 23 23 23 23 23 23 24 24
23 23 23 23 24 24 23 24 24 24 24 25 25 25 25 25 25 26 26 26 26 26 26 26 26 26 26 26 26 26 26 25 25 25 25 25 25 25 25 25 25 25 25 25 25 25 25 25 25 26 26 26 26 26 26 26 26 26 26 26 26 26 26 26 26 26 25 25 26 26 25 24 25 24 24 24 23 23 23 23 23 23 23 22 22
23 23 23 23 23 23 23 23 23 23 23 23 24 25 24 24 24 24 25 26 26 26 26 26 26 26 26 26 26 26 26 26 26 25 25 25 25 25 25 25 25 25 25 25 25 25 25 25 25 26 26 26 26 26 26 26 26 26 26 26 26 26 26 26 26 25 25 25 25 25 25 24 24 24 23 23 23 23 23 23 23 23 22 22 22
21 21 22 22 23 23 23 22 22 22 21 20 22 24 24 24 22 22 22 24 25 26 26 26 25 25 25 26 26 26 26 26 26 26 25 25 25 25 25 25 25 25 25 25 25 25 25 25 26 26 26 26 26 26 26 26 26 26 26 26 26 26 26 26 25 25 25 25 25 25 24 23 23 23 23 23 23 23 23 23 23 22 22 22 22
20 20 21 21 21 22 22 22 22 22 22 21 20 21 23 24 23 22 22 23 23 24 24 24 25 25 25 25 25 25 26 26 26 26 25 25 25 25 25 25 25 25 25 25 25 25 25 25 25 25 26 26 26 26 26 26 26 26 26 26 26 26 26 26 25 25 25 24 24 24 23 23 22 23 23 23 23 23 22 22 22 22 21 21 21
20 20 20 20 20 20 21 21 21 21 22 22 21 20 21 22 22 23 23 23 23 23 23 23 23 24 24 24 25 25 25 25 26 26 25 25 25 25 25 25 25 25 25 25 25 25 25 25 25 25 26 26 26 26 26 26 26 26 26 25 25 25 25 25 25 25 24 24 24 23 23 23 22 22 23 23 23 23 22 22 22 21 21 21 21
20 20 20 20 20 20 20 21 21 21 21 21 20 20 20 20 22 23 23 22 22 23 23 23 23 23 23 24 24 24 25 25 25 25 25 25 24 24 24 25 25 25 25 25 25 25 25 25 25 25 26 26 26 26 26 26 25 25 25 25 25 25 25 24 24 24 24 24 23 23 23 22 22 22 22 22 22 22 22 22 22 21 21 21 21
19 19 19 19 19 20 20 20 21 21 21 20 20 20 20 20 22 23 22 21 22 23 23 24 24 24 23 23 24 24 24 24 24 24 24 24 24 24 24 24 24 25 25 25 25 25 25 25 25 26 25 26 26 26 25 25 25 25 25 25 24 24 24 24 23 23 23 23 23 22 22 22 22 22 22 22 22 22 22 22 21 21 21 20 20
18 19 19 19 19 19 19 20 20 20 20 20 20 20 20 20 21 21 21 21 21 22 22 23 23 23 23 23 23 24 23 23 23 23 24 24 24 24 24 24 24 24 24 25 24 24 25 25 25 25 25 25 25 25 25 25 24 24 24 24 24 23 23 23 23 23 22 22 22 22 22 21 21 21 22 22 22 22 21 21 21 20 20 20 19
18 18 18 19 19 19 19 19 19 19 20 20 20 20 20 20 21 21 21 21 21 21 21 22 22 22 22 22 22 22 22 22 22 22 22 23 23 23 23 23 23 23 24 24 24 24 24 24 24 24 24 24 24 24 24 24 24 23 23 23 23 23 23 23 23 22 22 22 22 22 21 21 21 21 21 21 21 21 21 21 21 20 20 20 19
18 18 18 18 18 18 18 19 19 19 19 19 19 19 19 20 20 20 20 21 21 21 21 21 21 21 21 21 21 21 21 21 21 22 22 22 22 22 22 22 22 23 23 23 23 23 23 23 23 23 23 23 23 23 23 23 23 23 22 22 22 22 22 22 22 22 22 22 22 21 21 21 21 21 21 21 21 20 20 20 20 20 20 19 19
18 18 18 18 18 18 18 19 19 18 18 18 19 19 19 19 19 19 20 20 20 20 20 20 20 20 20 20 20 20 20 20 20 21 21 21 21 21 21 21 21 21 22 21 22 22 22 22 22 23 23 23 23 23 23 22 22 22 21 21 21 21 21 21 21 22 22 21 21 21 21 21 21 21 21 20 20 20 20 20 20 20 20 19 18
18 18 18 18 18 18 18 18 18 18 18 18 18 18 18 19 19 19 19 19 19 19 19 19 19 19 19 19 19 19 19 19 19 19 20 20 20 20 20 20 20 20 20 21 20 21 21 22 22 22 22 22 22 22 22 22 22 21 21 21 21 21 21 21 21 21 21 21 20 21 21 21 21 21 20 20 20 20 20 20 20 19 19 19 18
18 18 18 18 18 18 18 18 18 18 18 18 19 18 18 19 19 19 19 19 19 18 18 18 18 18 18 18 18 17 17 18 18 18 19 19 19 19 19 19 19 19 20 20 20 20 20 21 21 21 22 22 22 22 22 22 21 21 21 20 21 21 21 20 20 20 20 20 20 20 20 20 20 20 20 20 20 20 20 19 19 19 19 18 18
19 19 19 18 18 18 18 18 18 18 18 18 18 18 18 18 18 18 18 18 18 18 18 18 17 17 17 16 16 17 17 18 18 18 18 18 18 18 18 18 19 19 19 20 20 19 19 20 20 20 21 21 21 22 22 21 21 21 20 20 20 20 20 20 20 20 20 20 20 20 19 19 19 19 19 19 19 19 19 19 19 19 18 18 18
18 18 18 18 18 18 18 18 18 18 18 18 18 18 18 18 18 17 17 18 17 17 17 17 17 16 16 16 16 16 17 17 17 17 17 17 17 17 17 17 17 17 18 19 19 19 19 18 18 19 20 20 20 21 21 21 21 20 20 20 20 20 20 20 20 20 20 20 19 19 19 19 19 18 18 19 19 19 19 19 19 18 18 18 18
18 18 18 18 18 18 18 18 18 18 18 18 18 18 18 17 17 17 17 17 17 16 16 16 16 16 15 15 16 16 16 17 17 17 17 17 17 17 17 17 17 17 16 17 18 18 18 17 17 18 19 20 20 21 20 20 20 20 20 20 20 20 20 20 20 20 20 19 19 18 18 18 18 18 18 18 19 18 18 18 18 18 18 18 18
18 17 17 17 17 17 17 17 17 17 17 18 18 18 17 17 17 17 16 16 16 16 16 16 16 15 15 15 16 16 16 17 17 17 17 17 17 17 17 17 17 17 16 16 17 17 17 16 17 18 19 20 20 20 20 20 20 20 20 19 20 20 20 20 20 20 19 19 18 18 18 18 18 18 18 18 17 17 17 17 17 17 17 17 17
17 17 17 17 17 17 17 17 17 17 17 17 17 17 16 17 17 17 16 16 16 16 16 16 15 15 15 15 16 16 16 16 17 17 16 17 17 17 17 17 18 17 17 17 17 17 17 17 18 19 19 20 20 20 20 20 19 19 19 19 20 20 20 20 19 19 19 18 18 18 18 18 17 17 17 17 16 16 16 16 16 16 16 16 15
17 17 17 17 17 17 17 17 16 16 17 17 16 16 15 16 16 16 16 16 16 16 16 16 15 16 16 16 16 16 16 16 16 16 16 16 16 17 17 17 18 18 18 18 19 19 19 19 19 19 19 19 19 19 19 19 19 19 19 19 19 19 19 19 19 18 18 18 18 18 17 17 17 16 16 16 15 15 15 15 15 15 15 15 14
17 16 16 17 16 16 16 16 16 16 16 16 16 15 15 15 15 15 15 16 16 16 17 16 16 16 16 16 16 16 16 16 16 16 16 16 16 16 17 17 17 18 18 18 19 19 19 20 20 19 19 19 18 18 18 18 18 18 18 18 18 18 18 18 18 18 18 18 17 17 17 16 16 16 15 15 15 15 15 15 14 14 14 14 13
17 16 16 16 16 16 16 16 16 16 15 15 15 15 15 14 14 14 15 15 15 16 16 16 16 16 16 16 16 16 16 16 16 16 16 16 16 16 16 17 17 18 18 18 18 18 18 19 18 18 19 18 18 17 17 18 18 18 18 18 18 18 18 17 17 17 17 17 17 16 16 16 15 15 15 14 14 14 14 14 14 14 13 13 12
16 16 16 16 16 16 16 16 16 15 15 15 15 15 15 15 14 14 14 14 14 15 15 15 15 15 15 16 16 16 16 15 15 15 16 16 16 16 16 17 17 17 17 18 18 17 17 17 16 17 17 17 16 16 17 17 17 17 17 17 17 17 17 17 17 17 17 17 16 16 16 15 15 14 14 14 14 14 13 13 13 12 12 12 11
15 16 16 16 16 16 16 16 16 16 16 15 15 15 15 15 14 14 14 14 14 14 14 14 14 15 15 15 16 16 15 15 15 15 15 15 15 16 16 16 17 17 17 18 17 16 15 15 15 15 15 15 15 16 16 16 16 16 17 17 16 16 16 16 16 16 16 16 15 15 15 14 14 14 14 13 13 13 12 12 12 11 11 11 10
15 15 15 15 16 16 16 16 16 16 16 16 15 15 15 15 15 15 14 14 13 13 14 14 14 14 15 15 15 15 15 15 15 15 15 15 15 15 15 16 16 16 17 17 16 15 14 14 14 14 14 15 15 15 15 15 16 16 16 16 16 15 15 16 16 15 15 15 15 14 14 14 14 13 13 13 13 12 12 11 11 11 10 10 9
14 14 14 15 15 15 15 15 15 15 15 16 16 16 16 15 15 15 15 15 14 13 13 14 14 14 14 14 14 15 15 15 15 15 15 15 15 15 16 16 16 15 15 15 15 14 14 14 14 14 14 14 14 15 15 15 15 15 15 15 14 14 15 15 15 14 14 14 14 13 13 13 13 12 12 12 12 11 11 10 10 10 9 9 8
14 14 14 14 14 14 14 15 15 15 15 15 15 16 16 16 15 15 15 15 14 14 14 13 13 13 13 14 14 14 14 15 15 15 15 15 15 15 15 15 14 14 13 13 13 13 13 13 13 13 14 14 14 14 14 14 14 14 14 14 14 14 14 13 13 13 13 12 12 12 12 11 11 11 11 11 10 10 9 9 9 9 9 8 8
14 14 14 14 14 14 14 14 14 14 15 15 15 16 16 16 16 15 15 15 14 14 13 13 13 13 13 13 13 14 14 14 14 14 14 14 15 15 14 14 13 13 12 12 12 12 12 12 12 13 13 13 13 13 13 13 13 13 13 13 13 13 12 12 12 12 11 11 11 10 10 10 10 10 10 10 9 9 9 8 8 8 8 8 7
14 14 14 14 14 14 14 14 14 14 14 15 15 15 16 16 16 15 15 14 14 14 13 13 13 13 13 13 13 13 13 14 14 14 14 14 14 14 13 13 13 12 12 12 12 12 12 12 12 12 12 12 12 13 13 12 12 12 12 12 12 11 11 11 11 10 10 10 9 9 9 9 9 9 9 8 8 8 8 8 8 7 7 7 7
14 14 14 14 14 14 14 14 14 14 14 15 15 15 16 16 16 15 14 14 13 13 13 13 13 13 13 13 13 13 13 13 13 13 13 13 13 13 12 12 12 12 12 12 12 12 12 12 12 12 12 12 12 12 12 12 12 12 11 11 11 10 10 10 10 9 9 9 8 8 8 8 8 8 8 8 7 7 7 7 7 7 6 6 6
14 14 14 14 14 14 14 14 14 14 14 14 15 15 15 15 15 15 14 13 13 13 13 13 13 13 13 13 13 13 13 12 11 11 11 11 11 11 11 11 11 11 11 11 11 11 11 11 11 11 11 11 11 11 11 11 11 11 10 10 10 9 9 9 8 8 8 8 8 7 7 7 7 7 7 7 7 6 6 6 6 6 6 5 5
14 14 14 14 14 14 13 13 13 14 14 14 14 15 15 15 15 14 14 13 13 13 13 13 13 12 12 12 13 13 13 11 11 11 11 10 10 10 10 10 10 10 10 10 10 10 10 10 10 11 11 10 10 10 10 10 10 10 10 9 9 8 8 7 7 7 7 6 6 6 6 6 6 6 6 6 6 6 6 6 6 5 5 5 5
14 14 14 14 14 14 13 13 13 13 13 14 14 14 14 14 14 14 13 13 12 12 12 12 11 11 12 12 12 12 12 11 10 10 10 10 10 10 9 9 9 9 9 9 10 10 10 10 10 10 10 9 9 9 9 9 9 9 9 8 8 7 7 6 6 6 6 6 6 6 6 6 6 6 6 6 5 5 5 5 5 5 5 5 5
14 14 14 14 14 14 14 13 13 13 13 13 14 14 14 14 14 13 13 13 12 12 11 11 11 10 10 11 11 11 11 10 10 10 10 9 9 9 9 9 9 9 9 9 9 9 9 9 9 9 9 9 8 8 8 8 8 8 8 7 7 6 6 6 5 5 5 5 5 5 5 5 5 5 5 5 5 5 5 5 5 5 5 5 5
14 14 14 14 14 14 14 13 13 13 13 13 13 13 13 13 13 13 13 12 12 12 11 11 10 10 10 10 10 10 10 10 9 9 9 9 9 8 8 8 8 8 8 8 8 8 8 9 8 8 8 8 8 8 8 7 7 7 7 6 6 6 5 5 5 5 4 4 4 5 5 5 5 5 4 4 4 4 4 4 4 4 5 5 5
13 13 13 14 14 14 14 13 13 13 13 13 13 13 13 13 13 13 12 12 11 11 11 11 10 10 10 10 10 10 9 9 9 9 8 8 8 8 8 8 8 8 8 7 7 8 8 8 8 8 8 7 7 7 7 7 6 6 6 6 5 5 5 4 4 4 4 4 4 4 5 4 4 4 4 4 4 4 4 4 4 4 4 5 5
13 13 13 13 13 14 14 13 13 13 13 13 13 12 12 12 12 12 11 11 11 11 11 10 10 10 10 9 9 9 9 9 8 8 8 8 7 7 7 7 7 7 7 7 7 7 7 7 7 7 7 7 6 6 6 6 6 5 5 5 5 4 4 4 4 4 4 4 4 4 4 4 4 4 4 4 4 4 4 4 4 4 4 4 4
12 13 13 13 13 13 13 13 13 13 13 13 12 12 12 12 12 11 11 11 11 11 10 10 10 9 9 9 8 8 8 8 8 8 7 7 7 7 7 7 7 7 6 6 6 6 6 6 6 6 6 6 5 5 5 5 5 4 4 4 4 4 4 4 4 3 3 3 3 3 3 3 3 3 3 3 3 4 4 4 4 4 4 4 4
12 12 12 13 13 13 13 13 13 13 12 12 12 12 12 12 11 11 11 11 11 10 10 10 9 9 9 8 8 8 7 7 7 7 7 7 7 6 6 6 6 6 6 6 6 6 6 6 5 5 5 5 5 5 4 4 4 4 4 4 4 3 3 3 3 3 3 3 3 3 3 3 3 3 3 3 3 3 3 4 4 4 4 4 4
11 12 12 12 12 12 12 12 11 12 12 12 12 12 11 11 11 10 10 10 10 10 10 9 9 9 8 8 7 7 7 7 6 6 6 6 6 6 6 6 5 5 5 5 5 5 5 5 5 5 4 4 4 4 4 4 4 3 3 3 3 3 3 2 2 2 3 3 3 3 3 3 3 3 3 3 3 3 3 3 4 4 4 4 4
11 11 11 11 11 11 11 11 11 11 11 12 11 11 11 11 10 10 10 10 10 10 9 9 9 8 8 8 7 7 6 6 6 6 6 5 5 5 5 5 5 5 5 5 5 5 5 4 4 4 4 4 4 3 3 3 3 3 3 3 3 2 2 2 2 2 3 3 3 3 3 3 3 3 2 2 2 3 3 3 3 4 4 4 4
10 10 10 10 10 11 11 11 10 10 11 11 11 11 10 10 10 10 10 10 9 9 9 8 8 8 8 7 7 6 6 6 5 5 5 5 5 4 4 4 4 4 4 4 4 4 4 4 4 4 3 3 3 3 3 3 3 3 3 2 2 2 2 2 2 3 3 3 3 3 3 3 3 2 2 2 3 3 3 3 3 3 3 4 4
Height
810 812 815 817 819 821 822 824 826 828 829 830 831 832 833 834 835 836 837 839 840 841 842 843 844 845 845 846 847 847 848 849 850 850 851 851 851 852 852 853 853 853 853 854 853 854 854 853 853 853 853 853 853 854 853 854 853 853 853 853 852 852 852 852 852 851 850 850 849 849 848 847 846 845 844 843 842 841 840 839 838 837 836 835 834
808 810 812 815 817 819 821 823 825 826 828 829 830 831 832 833 834 835 836 837 838 839 840 841 842 843 844 844 845 846 846 847 848 848 849 849 850 850 851 851 851 852 852 852 852 853 853 853 853 853 853 852 852 852 852 852 852 852 852 852 851 851 851 851 851 850 849 849 848 848 847 847 846 845 844 843 842 841 840 839 838 837 836 835 834
805 808 810 812 814 817 819 821 823 825 826 827 828 830 831 832 833 834 835 836 837 838 839 839 840 841 842 843 843 844 845 845 846 847 847 848 848 848 849 849 850 850 850 851 851 852 852 852 852 852 852 852 851 851 851 851 851 851 851 851 851 851 851 851 850 850 849 848 848 847 847 846 846 845 844 843 842 841 840 839 838 837 836 835 834
804 806 808 810 812 815 817 819 821 823 824 826 827 828 830 831 832 833 834 835 835 836 837 838 839 839 840 841 841 842 843 844 844 845 845 846 846 847 847 848 848 848 849 849 849 850 850 850 850 850 851 851 851 851 850 850 850 850 850 850 850 850 850 850 849 849 848 848 847 847 846 846 845 844 843 842 841 840 839 838 837 837 836 835 834
802 804 806 809 811 813 815 818 820 821 822 824 825 827 828 829 831 831 832 833 834 835 835 836 837 838 838 839 840 840 841 842 843 843 844 844 845 845 846 846 847 847 847 847 848 848 848 848 849 849 849 849 849 850 850 850 849 849 849 849 849 849 849 849 848 848 848 847 847 846 846 845 844 843 842 841 840 839 838 838 837 836 835 834 833
800 802 805 807 809 812 814 815 817 819 820 822 823 825 826 828 829 829 830 831 832 833 834 834 835 836 836 837 838 839 839 840 841 841 842 843 843 844 844 845 845 845 846 846 846 846 847 847 847 847 848 848 848 848 848 849 849 848 848 847 847 847 847 847 847 847 847 846 846 845 845 844 843 842 842 841 840 838 837 836 836 835 834 833 832
801 802 804 805 807 810 811 813 815 817 819 820 822 823 824 826 827 827 828 829 830 831 832 833 833 834 834 835 836 837 838 838 839 840 841 841 841 842 842 843 843 844 844 844 844 845 845 845 846 846 846 846 846 847 847 847 847 847 847 847 847 846 846 846 846 846 845 845 845 844 843 843 842 841 841 840 839 838 837 835 834 833 833 832 831
800 802 804 805 806 807 809 812 814 816 817 819 820 821 822 824 825 826 827 827 828 829 830 831 831 832 833 833 834 835 836 837 837 838 839 840 840 840 841 841 842 842 842 842 843 843 843 844 844 844 844 845 845 845 845 845 845 845 845 845 845 845 845 845 845 845 844 844 843 843 842 842 841 840 840 839 838 837 837 835 833 832 832 831 830
797 798 800 803 805 806 808 811 812 814 816 817 818 819 820 822 823 824 825 825 826 827 828 829 830 830 831 832 833 834 834 835 836 836 837 838 838 839 839 840 840 840 841 841 841 841 842 842 842 842 843 843 843 843 843 843 843 843 843 844 844 844 844 844 844 843 843 843 842 842 841 841 840 839 839 838 838 837 836 835 833 832 831 829 829
793 795 797 800 803 805 807 809 811 812 813 814 815 816 818 819 821 822 823 823 824 825 826 827 828 829 829 830 831 832 832 833 834 835 836 836 837 837 838 838 838 839 839 839 840 840 840 840 840 841 841 841 841 841 841 842 841 841 841 842 842 842 842 842 842 842 842 842 841 841 840 840 839 839 838 838 837 836 835 834 833 831 830 828 827
791 794 796 797 800 803 805 807 809 811 812 812 813 814 815 817 819 820 820 821 822 823 824 825 826 827 828 828 829 829 830 831 832 833 834 834 835 835 836 836 836 837 837 837 838 838 838 838 838 838 839 839 839 840 840 840 840 839 840 840 840 840 840 840 840 840 841 840 840 840 839 839 839 838 838 837 836 835 834 834 833 831 830 828 827
790 792 793 795 797 800 803 805 806 809 812 813 811 810 812 814 816 818 818 819 820 821 822 823 823 824 825 826 826 827 828 829 830 831 831 832 833 833 834 834 834 835 835 835 836 836 836 836 836 836 837 837 837 838 838 838 838 838 838 838 838 838 838 838 838 839 839 839 839 839 839 838 838 837 837 836 835 834 834 833 833 832 831 830 828
793 794 793 794 796 798 801 803 804 807 811 814 812 808 807 810 814 816 818 818 818 818 819 819 820 821 822 823 823 824 825 826 827 828 829 829 830 831 831 832 832 832 833 833 834 834 834 834 834 835 835 835 835 835 836 836 836 836 836 836 836 836 836 836 837 837 837 837 837 837 838 838 838 837 836 835 834 834 833 832 832 832 831 830 828
795 797 796 796 797 798 800 802 804 805 807 811 814 811 808 807 810 815 818 817 816 816 817 818 818 819 820 821 821 822 823 824 825 826 827 827 828 828 829 829 830 830 830 831 831 831 832 832 832 833 833 833 833 833 834 834 834 835 835 835 835 835 835 835 835 835 835 835 836 836 836 837 838 837 836 835 834 833 832 832 831 831 830 829 828
794 797 798 798 799 799 799 801 802 803 803 807 812 814 811 808 808 811 814 815 815 815 815 816 817 818 818 819 820 820 821 822 823 824 825 825 826 826 827 827 827 827 828 828 829 829 830 830 830 831 831 831 831 832 832 832 833 833 833 833 833 833 834 834 834 834 834 834 835 835 835 836 836 836 835 834 833 832 832 831 830 830 829 828 828
794 796 798 799 800 800 799 800 800 801 802 805 808 812 813 810 809 808 810 814 816 815 813 813 814 815 816 816 817 818 818 820 821 821 822 823 823 824 824 824 824 825 825 825 826 826 827 828 828 829 829 830 830 830 830 831 831 831 832 832 832 832 832 833 833 833 833 833 833 834 834 835 835 834 833 832 832 831 831 830 830 829 828 828 827
796 797 798 799 800 800 800 801 801 801 802 804 806 809 810 810 809 808 809 813 816 814 812 811 811 812 813 814 814 815 815 817 818 819 820 820 821 821 821 821 822 822 822 823 823 824 824 825 826 826 827 828 828 828 829 829 830 830 830 830 830 830 831 831 831 831 832 832 832 832 833 834 834 833 831 831 831 830 830 829 829 828 828 827 827
797 798 799 799 800 801 801 802 802 802 802 804 806 807 808 808 809 809 810 812 813 812 810 810 810 811 812 812 813 813 813 814 815 816 817 818 818 819 819 819 819 819 819 820 821 822 823 823 824 824 825 826 826 826 827 827 828 829 829 829 829 829 829 829 830 830 831 831 831 832 832 832 832 831 830 830 830 829 829 828 828 828 828 828 827
799 798 799 799 800 801 801 801 801 801 802 804 805 806 806 806 807 808 809 810 810 809 809 808 808 808 809 810 810 811 812 813 814 815 815 816 816 816 816 816 816 816 816 817 818 820 821 822 822 823 824 824 824 824 824 825 826 827 827 828 828 827 827 827 828 828 829 829 830 830 830 830 830 830 830 830 829 829 828 828 828 828 828 827 827
801 800 800 799 799 800 801 801 802 801 802 803 804 805 804 804 805 805 806 806 807 807 806 806 806 806 806 807 808 809 811 812 813 813 813 814 814 814 814 814 813 813 814 815 817 818 818 819 820 821 822 822 822 822 822 823 824 825 825 826 827 827 826 826 826 826 827 828 828 829 829 830 830 830 830 830 829 829 829 828 828 828 827 827 827
803 803 802 801 801 801 801 801 802 802 802 802 802 803 803 803 803 803 803 804 804 804 804 804 804 804 804 805 806 807 808 809 810 810 811 811 811 811 811 811 812 813 813 813 814 815 815 816 818 819 820 820 819 820 820 821 822 823 823 825 825 826 826 825 825 825 825 826 827 828 829 829 829 830 830 830 830 829 829 828 828 827 827 827 827
804 804 804 804 804 803 803 803 803 804 804 803 804 804 803 802 802 801 802 802 801 801 802 803 803 803 803 803 804 805 806 807 808 808 808 808 808 808 808 809 811 812 812 812 812 813 813 814 815 816 817 818 818 818 818 819 820 821 822 823 824 825 825 825 825 824 825 826 827 827 828 829 829 829 830 830 830 830 829 829 828 828 828 828 828
805 805 805 805 804 804 805 805 805 806 806 806 805 804 802 801 801 800 800 800 800 801 802 802 802 802 802 803 803 803 804 805 806 806 806 806 806 806 806 806 807 809 810 809 808 809 810 811 812 814 815 815 815 815 816 817 818 819 820 821 823 824 824 825 824 824 825 825 826 827 828 829 829 829 830 830 830 830 830 829 829 829 829 829 828
807 806 806 806 805 806 806 806 807 808 808 807 806 804 802 801 801 801 801 800 800 801 801 802 802 803 803 803 803 803 803 804 805 805 805 806 806 805 805 804 804 805 806 805 804 805 806 807 809 811 812 813 813 813 814 816 816 817 818 820 822 823 824 824 824 824 824 825 826 827 828 829 829 830 830 831 831 831 830 830 830 830 830 829 829
807 807 807 807 807 807 807 807 807 807 808 807 806 805 804 802 801 801 801 801 801 802 802 803 803 804 805 805 805 805 805 805 806 806 806 806 806 806 805 804 802 802 803 801 801 803 804 805 807 808 809 810 811 812 813 814 815 816 818 819 821 822 823 823 823 824 824 825 827 828 829 829 829 830 831 831 831 831 831 830 830 830 830 830 829
809 809 809 808 809 809 808 808 808 808 808 808 807 806 806 804 803 802 801 801 802 803 804 805 805 806 806 807 807 807 807 807 808 808 808 808 807 807 806 805 804 804 803 800 799 801 803 804 804 806 808 810 811 811 812 814 815 816 817 819 820 822 823 823 823 824 825 826 827 828 829 829 829 830 830 831 830 830 831 830 830 830 830 829 829
811 810 810 810 810 810 810 810 810 809 809 809 809 808 807 807 805 804 802 803 803 804 806 806 807 808 808 808 809 809 809 809 809 809 810 810 809 808 807 806 805 806 806 804 802 802 804 804 804 806 809 810 810 810 812 813 814 816 817 819 820 821 822 823 823 824 825 826 827 828 829 829 829 830 830 830 830 831 831 830 830 829 829 829 828
812 812 811 811 811 811 812 812 812 812 812 811 810 810 809 809 808 806 805 805 806 807 807 807 808 809 810 810 810 810 809 810 810 810 811 810 809 809 808 808 807 807 807 806 805 805 805 806 806 807 808 809 809 810 811 813 814 815 817 819 820 821 822 822 823 824 825 826 827 828 829 829 829 830 830 830 830 831 831 830 830 829 829 828 827
814 813 813 812 812 813 813 813 814 814 814 814 813 812 812 811 810 809 808 808 808 809 809 809 810 811 810 810 810 810 810 810 810 810 810 809 809 809 808 808 808 807 807 807 806 806 806 807 807 807 807 808 809 810 811 813 814 816 818 819 821 822 822 823 823 824 826 827 827 828 829 829 830 830 830 830 831 831 831 830 830 829 829 828 828
815 815 814 814 814 814 814 815 815 816 816 816 816 816 815 814 813 812 811 810 811 811 811 811 812 812 812 812 811 811 811 810 810 809 809 809 809 809 809 809 809 808 808 807 806 806 806 806 806 807 807 808 809 811 812 813 815 817 819 820 821 822 823 823 824 825 826 827 828 829 829 829 830 830 830 831 831 831 831 831 830 830 829 828 828
817 817 816 816 816 816 816 816 817 817 818 818 818 818 818 817 816 815 814 814 814 813 812 812 813 813 813 813 812 811 811 810 810 810 808 808 809 809 809 809 809 809 808 807 807 806 806 806 806 807 807 809 810 812 813 815 816 818 820 821 822 823 823 824 825 826 827 828 828 829 829 830 830 831 831 831 831 831 831 831 830 830 830 829 829
819 818 818 818 818 818 818 818 818 819 819 819 819 819 819 819 819 819 818 817 817 816 815 814 814 814 813 813 812 811 811 810 810 810 809 809 809 809 809 809 809 810 810 808 807 807 807 807 808 808 809 810 812 813 815 816 818 819 820 822 823 824 825 825 826 827 828 828 829 829 830 830 831 831 832 832 832 831 831 831 831 831 830 830 829
820 820 820 820 820 819 819 819 819 820 820 820 820 820 820 820 820 820 820 820 819 819 818 817 816 815 814 814 813 812 812 811 811 810 810 810 810 809 810 810 810 811 811 810 809 809 809 809 810 811 811 812 814 815 817 818 819 821 821 822 824 825 826 827 827 828 828 829 829 830 830 831 831 831 832 832 832 832 832 832 832 831 830 830 829
821 821 821 821 821 821 821 820 820 820 820 820 820 820 820 820 820 820 820 821 821 821 821 820 819 818 816 815 814 814 813 812 812 811 811 812 812 811 811 811 812 812 813 812 812 812 812 812 813 814 814 815 816 818 819 820 821 822 823 824 825 826 827 828 828 828 829 829 830 830 831 832 832 832 832 832 832 832 832 832 831 831 830 830 829
821 821 821 821 821 821 821 821 821 821 821 820 820 820 820 820 819 819 819 819 820 821 821 821 821 820 818 817 816 815 814 814 814 814 814 814 814 814 813 813 814 815 815 815 815 815 815 815 816 816 817 817 819 820 821 822 823 824 825 826 827 827 828 829 829 830 830 830 831 831 832 832 832 832 832 832 832 832 832 831 831 830 830 829 829
821 821 821 821 821 821 821 821 821 821 821 821 820 820 819 819 818 819 819 819 819 820 820 821 821 821 821 820 819 818 817 816 816 816 816 816 817 816 815 815 816 817 818 819 819 819 819 819 819 819 819 820 821 822 823 824 825 826 827 827 828 828 829 830 830 831 831 831 832 832 832 832 832 833 832 832 832 832 831 831 831 830 829 828 828
821 821 821 821 821 820 820 820 820 820 820 820 820 820 819 819 818 818 819 819 819 819 820 821 821 821 821 821 821 821 820 819 818 817 817 818 819 819 819 818 819 821 822 823 823 822 823 823 823 822 822 823 824 825 825 826 827 828 828 829 829 830 831 831 832 832 832 833 833 833 833 833 833 833 833 833 832 832 831 831 830 829 828 827 827
822 821 821 821 820 820 820 820 820 820 820 820 820 820 819 819 819 818 819 819 819 820 820 821 821 821 821 822 822 822 822 821 820 820 819 820 820 821 822 822 823 825 826 827 826 826 826 826 826 826 826 826 827 827 828 829 829 830 830 831 831 832 832 833 833 833 833 834 834 834 834 834 834 834 833 833 832 831 830 830 829 828 827 826 825
821 821 821 821 820 820 820 820 820 820 820 820 820 820 819 819 819 819 819 819 819 820 821 821 821 821 821 822 823 823 822 822 822 821 821 821 822 823 825 826 827 828 829 829 829 829 829 829 829 829 829 830 830 830 830 831 831 832 832 832 833 833 833 834 834 834 834 835 835 835 834 834 834 833 833 832 831 830 829 829 828 827 826 826 825
821 821 821 821 821 821 821 821 821 820 820 820 820 819 819 819 819 819 819 820 820 821 821 822 822 822 822 823 823 823 823 823 823 823 823 823 824 825 826 828 829 830 831 831 831 831 831 831 832 831 831 832 832 832 832 833 833 833 834 834 834 834 835 835 835 835 835 835 835 835 834 834 833 833 832 831 831 830 829 828 827 827 826 825 824
820 820 820 820 821 821 820 821 821 821 820 820 820 820 820 820 820 820 820 820 821 821 822 822 823 823 824 824 824 823 823 824 824 825 826 826 827 828 828 829 830 832 833 833 833 833 833 833 833 833 833 833 833 833 833 834 834 834 835 835 835 836 836 836 836 836 836 836 835 835 834 834 833 833 832 831 830 829 828 827 826 825 825 824 823
819 819 819 819 820 820 820 820 820 820 821 821 820 820 820 820 820 820 820 821 821 822 822 823 824 824 825 825 825 825 825 825 826 827 827 828 829 830 830 831 832 833 833 834 834 834 834 834 834 834 834 834 834 834 834 835 835 835 836 837 837 837 837 837 837 837 836 836 836 835 834 834 833 832 831 830 829 828 827 826 825 824 823 822 822
818 818 818 818 818 818 818 819 819 820 820 820 820 821 821 820 821 821 821 821 822 822 823 824 825 825 826 826 827 827 827 827 828 828 829 829 830 831 832 833 833 833 834 834 834 835 835 835 835 835 835 835 835 835 836 836 837 837 838 838 838 839 838 838 838 837 837 836 835 835 834 833 832 831 830 829 828 826 826 825 824 823 823 822 821
817 817 817 817 817 817 817 817 818 818 819 820 820 820 821 821 822 821 821 822 823 823 824 825 825 826 827 827 828 828 829 829 830 830 830 831 831 832 833 833 834 834 834 835 835 835 835 835 835 835 835 836 836 836 837 837 838 838 839 839 839 839 839 838 838 837 836 836 835 834 833 831 830 829 828 827 826 826 825 824 824 823 823 822 821
815 815 816 816 816 816 817 817 817 818 818 819 819 819 820 821 821 822 822 823 823 824 825 826 826 827 827 828 829 830 830 831 831 832 832 833 833 833 834 835 835 835 835 835 836 836 835 835 835 835 835 836 836 837 838 838 839 839 840 840 840 839 839 838 837 836 836 835 834 832 831 830 829 829 828 827 826 825 825 824 824 824 823 823 822
813 813 814 814 815 815 815 816 817 817 818 818 819 819 820 820 821 821 822 822 823 825 826 826 827 828 828 829 830 830 831 832 833 833 834 834 834 835 835 836 836 836 836 836 836 836 836 835 835 835 835 836 836 837 838 838 839 839 840 840 840 839 838 838 837 836 835 834 833 832 831 830 829 828 827 826 826 825 824 824 824 823 823 822 821
811 811 812 812 812 812 813 814 814 815 816 817 818 819 820 820 821 821 822 822 823 824 826 827 828 828 829 829 830 831 832 833 834 834 835 835 836 836 836 836 836 836 836 836 836 836 836 836 836 835 835 836 836 837 838 838 839 839 839 839 839 839 838 837 836 835 834 833 832 831 830 829 828 827 827 826 825 825 824 824 824 823 822 822 821
809 809 809 810 810 810 811 812 812 813 814 815 816 817 818 820 821 822 822 822 823 824 825 827 828 828 829 830 830 831 832 833 834 835 836 836 836 836 837 836 836 836 836 836 836 837 836 837 836 836 836 837 837 838 838 839 839 839 839 839 839 838 837 837 836 834 833 832 831 830 829 828 828 827 826 825 825 824 824 823 823 822 822 821 820
806 807 807 808 808 809 810 811 812 813 813 814 815 816 817 819 820 822 823 823 823 824 825 826 827 828 829 830 830 831 832 833 834 834 835 836 836 837 837 836 836 836 836 836 836 836 837 837 837 837 837 837 838 838 839 839 839 839 839 839 839 838 837 836 835 834 833 832 830 829 828 828 827 826 825 825 824 824 823 823 822 821 821 821 820
805 805 806 807 808 809 810 811 812 813 813 814 815 816 817 818 819 821 822 823 824 824 826 826 827 827 828 829 830 831 832 833 834 834 835 835 836 836 837 837 837 836 836 836 836 836 837 837 837 837 838 838 838 839 839 839 839 839 839 839 838 838 837 836 835 834 832 831 829 828 828 827 826 825 825 824 824 823 823 822 822 821 821 820 819
805 806 807 807 808 808 809 809 810 811 812 813 814 816 817 819 819 820 822 823 824 825 826 827 827 828 828 828 830 831 832 833 834 834 834 835 836 836 836 836 836 836 836 836 836 836 837 837 837 838 838 839 839 839 839 839 839 839 839 839 838 837 837 836 835 833 832 830 829 828 827 826 825 824 824 823 823 822 822 822 821 821 820 819 818
Wind_Speed
33 32 31 30 29 29 30 30 29 27 26 26 26 26 26 25 25 25 24 23 22 21 22 21 21 21 20 20 19 18 17 17 15 14 14 13 12 12 11 11 11 11 10 9 8 8 8 8 8 7 5 6 6 7 8 8 8 8 7 7 7 7 8 8 8 8 11 11 11 11 10 12 13 13 15 17 17 16 17 17 16 14 14 14 15
33 32 31 30 29 29 29 30 30 27 26 26 25 25 25 25 25 24 24 23 21 21 21 21 20 20 20 20 19 18 18 17 16 15 15 14 13 12 12 12 12 11 11 10 9 8 9 9 9 8 7 7 7 7 8 7 7 7 6 5 6 5 7 9 8 8 10 12 11 10 10 12 13 13 16 18 17 16 15 15 14 13 14 15 16
34 32 31 30 30 29 28 30 29 27 26 26 25 25 25 25 24 24 24 23 22 21 21 21 20 20 20 20 20 19 18 17 16 16 16 15 15 14 13 12 12 11 11 11 10 9 10 10 10 9 8 9 9 9 8 8 8 7 6 5 5 5 6 9 9 9 10 12 11 11 12 12 13 14 17 17 15 13 13 13 13 14 14 15 17
33 32 32 31 30 28 28 29 29 27 27 26 25 25 25 24 23 23 24 23 23 22 22 22 22 21 21 21 20 20 19 18 18 17 17 16 16 15 13 12 12 12 12 12 11 9 9 9 9 9 9 10 11 11 10 10 9 7 6 6 7 8 8 9 10 10 11 11 12 13 13 13 14 16 17 17 14 12 13 13 15 16 15 16 17
32 31 31 30 29 29 28 28 28 28 28 27 26 25 25 24 24 24 24 24 24 23 22 23 23 23 22 22 21 21 20 20 19 19 18 17 16 16 15 14 13 13 12 12 11 10 9 9 8 8 9 11 11 11 11 10 9 7 8 8 9 10 10 10 10 10 11 12 13 14 13 13 16 17 17 17 16 15 15 15 16 17 18 18 18
32 32 31 29 28 28 29 28 29 28 28 28 28 27 26 25 25 25 25 25 25 24 23 23 23 23 23 23 22 22 21 21 20 20 19 18 18 18 17 16 14 14 13 13 12 12 11 10 9 8 10 11 11 11 11 10 10 10 10 10 9 9 10 10 10 10 11 12 13 14 13 14 16 18 17 17 18 17 17 18 18 18 19 20 21
23 25 28 29 29 28 29 29 29 29 29 28 28 28 28 27 26 26 26 26 26 26 24 23 23 23 23 23 23 22 22 21 21 21 20 19 19 19 19 18 16 15 14 14 13 13 12 12 11 10 11 11 11 11 11 11 12 12 12 11 11 11 11 12 11 11 12 12 12 12 13 14 16 17 17 17 17 16 16 19 21 20 21 22 24
19 19 20 24 27 28 29 29 29 29 29 29 29 28 28 28 27 26 27 28 27 27 26 25 24 24 23 23 23 23 22 21 21 21 21 20 19 19 19 18 17 17 16 15 14 13 13 13 12 12 12 13 13 12 11 12 13 13 13 13 13 13 13 13 13 12 12 11 11 12 13 15 16 16 17 17 17 17 16 17 20 21 22 23 23
26 25 23 23 24 26 27 27 28 29 29 29 30 30 30 29 27 26 27 29 28 27 27 27 26 25 25 24 23 23 22 22 21 21 21 21 20 19 19 19 18 18 17 16 15 14 14 14 14 14 14 14 14 13 13 12 12 12 12 12 13 14 14 14 13 13 12 11 12 13 13 15 16 16 16 16 16 17 16 15 17 20 23 23 22
29 28 27 25 25 25 24 25 26 28 29 30 30 31 32 30 28 27 27 28 29 28 28 28 28 27 26 25 24 24 24 23 22 22 21 21 21 21 20 20 19 19 19 17 17 16 16 16 15 14 14 14 13 13 12 12 12 12 13 13 13 14 14 14 14 14 13 12 12 13 12 14 15 15 16 16 16 15 15 15 17 20 22 22 20
29 28 27 27 27 26 24 23 22 22 26 29 29 28 29 29 29 30 30 29 29 28 29 29 29 29 27 27 26 25 25 24 23 22 22 22 23 22 22 21 20 20 20 19 19 18 17 17 16 15 15 14 13 12 12 12 12 13 13 13 13 13 13 13 14 14 13 12 12 11 11 13 15 16 15 14 14 14 14 15 16 18 18 17 16
28 29 29 28 27 26 23 21 20 17 17 21 25 26 24 22 20 22 26 29 29 29 30 30 30 30 29 29 28 26 26 24 23 22 22 22 23 23 22 21 21 21 21 20 21 20 19 18 17 17 15 14 13 12 11 10 9 9 10 11 11 11 11 11 12 13 14 13 12 12 12 13 14 14 12 12 12 12 13 13 13 14 14 13 14
19 21 23 23 23 22 21 19 19 17 12 11 16 22 23 21 15 11 15 20 23 25 28 29 29 30 29 29 29 28 27 25 23 22 22 22 22 23 23 22 22 23 23 22 22 21 20 20 19 17 14 14 13 12 11 11 10 10 11 10 10 9 9 9 10 13 14 13 12 11 10 12 13 11 8 8 10 11 12 12 12 11 12 12 14
13 12 13 16 19 20 21 20 19 20 16 9 10 15 19 20 15 8 8 11 13 14 17 20 24 26 27 27 27 27 27 26 23 23 23 22 22 22 23 23 23 23 24 24 23 22 21 21 19 17 14 13 12 12 12 12 11 11 9 8 8 7 8 8 9 11 12 11 9 8 7 8 10 10 7 6 9 10 11 12 12 10 10 10 12
15 12 11 11 14 16 17 17 16 17 16 12 10 13 13 12 13 11 9 9 9 10 10 10 12 16 19 22 23 24 25 25 24 24 24 24 23 23 24 23 23 23 23 23 23 22 22 21 20 18 14 12 10 10 10 10 10 10 9 7 7 7 8 8 8 9 9 8 8 8 7 7 8 10 9 9 10 10 10 10 10 9 9 10 11
12 12 12 10 11 12 13 14 14 13 13 11 10 12 11 9 12 15 13 11 12 13 14 13 12 11 13 16 19 21 22 22 23 24 24 24 24 24 25 25 24 24 23 22 21 22 22 21 19 17 15 13 12 11 11 11 10 10 9 7 7 6 6 6 6 6 7 8 8 9 9 9 10 10 10 9 9 8 8 9 8 8 10 11 10
9 9 10 9 8 7 6 8 8 8 8 8 9 11 9 8 10 14 15 16 17 17 17 19 18 16 15 16 18 19 19 19 20 22 23 24 24 25 25 26 26 26 26 24 21 20 21 21 19 18 17 15 14 13 12 12 11 10 9 8 7 7 6 6 6 6 5 6 6 6 7 8 7 6 6 6 7 7 8 8 7 8 10 9 8
10 8 7 7 5 3 3 4 5 6 6 6 7 10 9 8 9 11 14 17 18 18 18 20 20 20 19 19 19 20 19 17 17 18 20 21 22 23 25 25 26 27 27 25 22 20 19 20 20 20 18 16 14 13 12 12 11 11 11 10 9 9 8 8 7 6 5 4 3 2 2 2 1 2 3 4 5 5 6 7 7 7 8 7 7
11 9 6 5 5 5 4 4 4 4 4 7 8 8 8 9 9 10 12 14 15 17 18 19 21 23 24 24 22 19 17 16 15 16 17 18 19 20 21 22 23 24 24 22 20 18 19 19 20 19 17 16 14 13 12 11 10 10 10 11 11 10 10 9 8 7 5 4 2 1 2 3 3 3 3 4 5 6 9 10 10 9 8 8 9
14 12 10 8 6 5 4 3 2 3 4 5 6 7 7 8 8 9 10 12 13 15 16 18 20 22 23 25 24 21 20 19 19 19 19 18 18 19 20 20 21 22 20 18 17 18 20 20 19 18 17 16 14 11 10 9 9 9 9 9 10 10 9 8 8 6 5 2 2 4 6 5 5 5 6 7 9 10 12 12 11 10 9 10 12
14 14 15 13 11 8 5 4 3 2 2 3 4 6 6 7 8 9 10 11 13 14 15 15 16 17 18 21 22 22 21 22 22 22 22 22 22 21 22 23 22 20 19 19 20 21 23 23 21 19 17 15 13 11 10 9 9 10 10 8 8 8 7 7 6 4 4 6 8 9 8 7 7 7 8 9 10 10 10 10 10 9 10 11 15
13 14 14 15 15 13 11 9 8 6 4 2 2 3 3 4 6 7 8 9 10 12 13 14 13 12 11 11 13 13 13 14 17 18 20 22 22 22 21 22 22 22 21 20 22 26 27 25 22 20 17 14 12 10 9 9 10 10 10 9 8 8 6 5 5 7 10 12 13 11 10 9 9 10 10 10 10 10 10 11 11 11 13 16 17
13 13 14 14 14 14 13 12 11 11 9 7 4 4 3 1 2 4 6 7 7 8 9 9 9 6 5 5 5 5 4 6 8 10 12 15 17 18 19 20 22 23 24 23 25 29 29 25 20 17 15 13 11 10 9 10 11 11 11 9 8 7 6 7 9 13 15 15 14 13 13 12 12 13 13 12 12 12 12 13 13 14 15 16 17
11 12 13 14 14 14 14 14 14 14 13 12 11 10 9 6 3 1 3 5 7 8 8 8 8 8 8 7 5 4 2 0 3 4 6 8 11 12 14 17 19 21 25 30 29 26 23 21 18 16 15 13 11 10 9 10 11 11 11 9 8 8 10 12 15 17 17 16 15 16 16 15 14 14 14 12 12 11 11 12 12 13 13 14 16
10 11 11 13 13 13 13 14 14 14 14 14 14 15 14 12 8 4 3 4 7 8 10 11 12 12 12 11 10 8 5 3 2 2 3 4 6 7 7 8 9 9 16 25 28 23 20 20 18 15 13 11 9 9 9 9 9 9 9 10 10 12 15 17 18 18 17 18 18 18 17 16 15 14 11 9 8 8 9 9 9 9 10 11 12
10 10 9 10 10 10 10 11 11 12 13 13 14 15 16 16 14 9 7 7 8 8 9 10 12 13 13 13 13 11 9 8 7 6 5 5 4 6 7 7 5 2 4 12 19 20 18 17 15 12 10 9 9 9 9 9 9 9 9 11 14 17 19 19 18 18 19 19 18 18 17 15 13 11 8 7 8 9 10 9 8 9 9 9 10
11 11 9 8 8 8 9 9 8 9 10 11 12 12 12 14 15 14 12 12 12 11 10 10 12 12 12 12 13 13 12 11 10 9 8 7 8 8 9 9 8 5 2 3 7 9 9 9 10 11 10 11 11 11 10 10 10 11 13 16 19 20 19 18 17 18 19 18 17 16 15 12 10 9 8 9 11 12 11 10 11 12 12 10 11
10 10 10 9 8 9 9 10 11 11 10 11 13 14 12 12 15 17 16 14 13 12 12 13 12 11 11 12 11 11 11 10 9 8 8 9 9 10 9 9 8 5 3 3 4 4 5 8 11 13 14 14 13 13 13 14 15 18 20 21 21 21 20 18 18 18 17 16 15 14 12 10 10 10 11 12 13 13 11 11 12 14 13 13 14
8 9 9 9 10 10 11 12 13 13 12 13 14 14 14 13 15 17 17 16 14 12 12 13 12 10 10 11 11 9 8 7 7 7 8 9 9 10 10 9 8 7 4 2 4 5 7 10 13 15 16 16 18 19 20 21 22 23 23 23 22 21 19 18 18 17 15 14 13 12 11 12 13 13 13 14 15 13 12 12 13 13 13 14 16
7 8 8 8 8 8 9 11 12 12 13 13 13 13 13 13 14 16 17 16 14 13 12 12 10 6 5 5 6 7 7 6 6 6 6 6 7 8 8 8 7 6 5 2 3 5 8 10 13 16 18 20 22 23 24 25 25 24 23 22 21 20 18 17 17 16 14 13 13 13 13 14 14 13 13 14 14 14 13 13 13 13 14 15 16
3 4 6 7 7 7 7 8 8 9 9 11 12 13 13 13 13 14 15 15 14 13 12 11 9 7 5 4 4 4 4 5 5 4 4 5 6 7 7 6 5 4 3 3 6 7 8 10 13 16 20 22 23 24 24 25 25 24 22 21 20 18 18 17 15 14 13 13 14 14 13 14 14 13 13 13 13 13 13 12 13 13 14 14 14
1 1 2 3 4 5 5 6 6 6 6 7 8 10 11 12 13 13 13 14 15 14 14 13 12 10 9 8 6 5 4 3 3 4 4 5 5 7 7 5 3 3 3 6 11 12 13 14 15 17 20 22 22 22 23 23 23 23 22 21 19 18 17 17 14 13 13 13 14 14 14 13 13 13 12 12 11 12 12 12 13 13 13 13 14
1 0 1 1 0 0 1 2 3 4 4 4 5 6 7 9 11 13 13 13 13 13 13 13 12 12 10 9 8 8 7 6 6 6 7 6 6 6 6 5 5 4 4 9 16 18 18 19 19 18 20 21 21 22 22 22 21 21 20 20 19 18 17 16 14 13 14 14 14 14 14 12 11 11 11 11 11 11 11 12 12 12 13 14 14
1 1 2 3 3 3 3 2 1 1 2 4 5 5 4 5 8 11 12 11 11 11 12 12 13 14 14 13 12 12 12 11 10 11 10 8 8 8 9 9 9 8 8 13 18 19 20 21 21 20 21 21 21 21 21 20 20 20 20 20 19 18 17 15 14 14 14 14 14 14 13 11 10 10 10 9 9 9 10 11 12 13 14 15 14
3 3 3 4 4 4 4 4 4 3 2 2 3 4 4 5 8 10 10 10 10 10 11 13 13 14 14 14 14 14 15 14 13 12 11 10 8 8 9 11 13 13 14 16 18 19 20 21 21 20 21 21 21 21 20 20 20 20 20 19 19 17 16 15 15 15 14 13 13 13 12 11 10 9 9 9 9 9 10 11 12 13 14 14 14
6 6 6 6 5 5 5 5 5 5 5 3 1 1 3 4 7 11 11 11 11 11 10 12 12 12 13 13 14 14 14 14 13 12 10 9 7 7 10 15 18 18 18 18 18 19 20 20 20 20 20 20 20 19 19 19 19 18 18 18 17 16 16 15 15 14 14 14 13 12 11 11 10 9 8 9 10 10 11 12 13 13 14 14 14
7 7 6 6 7 7 6 5 4 4 5 4 3 1 2 3 4 9 12 12 11 10 9 9 9 10 11 12 12 12 12 12 12 12 11 10 9 10 15 19 20 19 19 18 18 19 19 19 19 19 19 19 19 18 18 18 17 17 17 16 16 16 16 15 15 14 13 13 13 12 11 11 10 9 9 10 11 11 12 13 14 15 15 15 15
8 7 6 7 8 7 6 5 3 2 3 3 2 1 1 2 3 6 10 12 11 9 8 7 8 9 10 10 9 8 8 9 10 11 12 12 12 14 16 18 18 19 19 18 17 18 19 18 18 18 18 17 17 16 16 16 16 16 15 15 15 15 15 14 13 12 12 12 12 11 11 11 11 10 10 11 12 13 14 14 15 16 17 16 15
10 9 8 8 9 7 6 5 3 2 2 2 2 1 2 2 4 6 9 11 11 9 7 6 7 8 8 8 8 6 6 7 10 13 14 14 14 15 15 15 16 17 16 15 15 16 16 16 15 15 15 15 14 14 14 13 13 13 13 13 13 13 12 12 11 11 10 10 10 10 10 11 11 11 11 12 13 14 15 15 16 16 15 15 14
12 10 9 9 8 7 7 5 4 2 2 1 2 3 3 4 5 6 9 11 10 8 6 6 6 7 7 7 6 4 5 9 13 15 15 16 15 15 14 14 14 13 13 13 13 12 13 13 12 12 12 12 11 11 11 11 11 11 10 10 11 11 10 10 10 10 10 10 10 10 10 11 12 12 13 13 14 15 15 15 15 14 13 13 13
14 12 11 10 9 8 7 6 5 3 2 2 3 3 4 5 6 8 10 11 10 9 7 6 7 7 6 5 3 2 5 11 14 14 15 16 15 15 14 13 12 11 10 10 10 9 10 10 9 9 9 9 9 9 9 9 9 9 9 9 9 9 9 9 9 9 10 10 10 11 11 12 13 14 14 14 14 14 14 14 13 13 12 11 11
16 15 13 12 10 9 8 7 6 5 4 3 3 4 5 6 8 10 12 12 11 10 9 9 9 8 7 6 4 5 8 12 14 14 15 15 14 14 13 12 11 11 10 9 8 7 7 7 8 7 8 8 8 7 7 7 7 8 8 8 9 9 9 9 9 9 9 10 11 11 12 13 15 15 15 14 14 13 12 12 11 11 11 11 10
18 17 16 14 12 11 10 10 9 8 6 5 5 5 5 7 9 12 13 13 12 11 10 11 11 11 10 9 9 9 11 13 13 13 13 13 13 12 12 11 10 9 8 8 7 6 5 5 6 7 7 7 7 7 7 7 7 7 7 8 8 8 9 9 9 10 10 11 12 13 14 16 16 16 15 13 12 11 10 10 11 10 10 9 9
20 20 19 17 16 13 12 13 12 11 9 7 6 6 6 7 9 12 13 13 13 11 11 11 11 12 12 12 11 12 13 14 13 13 13 12 12 12 11 10 10 9 8 7 7 6 5 5 6 7 7 8 7 7 7 7 6 6 7 7 7 8 9 9 10 11 12 13 14 15 16 15 15 14 12 11 10 10 10 10 10 10 9 8 8
22 22 21 21 19 17 15 14 14 12 10 8 8 7 6 7 10 13 15 15 14 13 12 11 10 11 11 11 11 12 13 13 12 12 12 11 11 11 10 10 9 9 8 8 7 7 6 7 8 9 9 9 8 7 7 7 6 6 6 6 7 8 9 10 11 13 14 15 15 15 14 13 12 11 11 10 10 10 9 9 9 9 8 8 9
22 23 23 22 22 21 19 17 16 15 13 11 9 8 7 8 11 14 15 16 15 14 13 11 10 10 10 11 11 11 12 11 11 10 10 10 10 9 9 8 8 7 7 7 7 7 8 9 9 9 10 10 10 9 8 8 7 7 6 7 8 9 10 12 13 14 14 14 13 12 11 11 10 10 10 9 9 8 8 8 8 8 8 9 10
21 22 23 24 24 24 22 20 19 19 17 15 13 11 9 9 12 14 15 16 15 15 14 12 10 10 10 11 11 11 11 11 10 10 9 8 7 7 6 5 5 5 5 4 5 5 6 7 8 9 10 11 11 10 9 8 8 7 7 8 9 11 13 13 13 13 12 11 10 9 9 9 9 9 9 8 7 7 8 7 7 8 10 9 10
20 20 23 25 25 24 23 21 21 22 20 18 17 14 12 12 14 15 15 14 14 14 13 12 11 10 10 11 11 11 11 11 11 10 9 7 6 5 3 2 2 2 2 2 3 4 5 7 8 9 10 10 9 9 8 8 7 7 7 9 11 12 12 12 11 11 11 10 9 9 8 8 8 8 8 8 7 7 7 6 7 9 10 10 10
18 18 21 22 21 20 20 19 19 20 20 19 18 16 15 16 16 15 14 13 13 13 13 12 12 11 11 11 11 10 11 11 11 10 9 7 5 4 2 1 2 2 1 1 2 3 5 7 9 9 9 8 8 7 7 6 7 7 9 10 11 10 10 10 11 12 12 11 10 9 9 9 8 7 7 7 6 5 6 6 7 9 10 10 11
14 15 16 18 18 18 17 16 15 16 17 16 16 16 17 17 17 16 15 14 14 14 13 13 12 12 11 11 11 11 11 10 10 9 8 7 5 4 2 1 1 1 1 1 3 4 7 9 10 9 8 7 7 7 6 6 7 8 9 9 9 9 9 10 11 12 13 12 11 10 9 8 7 6 6 5 4 4 6 8 8 9 10 11 13
9 10 10 11 13 15 16 16 16 17 16 15 15 15 16 16 16 15 15 15 15 15 14 14 13 12 11 11 11 11 10 10 9 9 8 6 5 4 2 1 1 2 2 3 4 5 8 9 9 8 8 7 6 6 6 6 8 9 8 7 8 9 11 12 13 13 14 14 13 11 9 7 6 6 5 5 4 5 7 8 8 9 11 12 13
Wind_Direction
205 207 210 212 215 217 219 220 221 224 227 229 229 228 226 224 225 226 227 229 231 233 234 233 233 234 235 237 238 240 239 240 240 238 240 245 245 246 249 255 261 265 267 271 277 282 283 276 262 255 266 271 271 285 291 287 285 284 287 300 301 288 274 256 247 275 300 316 328 338 346 345 348 356 354 352 352 354 359 5 6 9 10 9 8
204 206 208 210 212 215 217 219 221 225 228 229 229 228 226 226 226 227 227 229 231 234 234 233 233 235 236 237 239 239 239 238 236 236 238 240 241 244 248 251 254 257 258 264 274 280 277 273 265 257 264 268 267 281 290 288 294 289 279 288 298 291 276 267 260 268 291 309 321 332 342 343 342 347 349 349 351 356 4 10 12 13 9 2 358
204 205 206 208 210 212 215 217 219 223 225 227 228 229 229 229 229 229 230 232 235 237 236 235 235 236 236 236 238 238 236 235 234 236 238 239 241 244 246 249 250 251 252 255 265 276 276 276 272 263 263 266 267 276 283 289 299 294 272 272 285 284 277 273 268 267 281 298 311 322 332 336 335 339 343 345 348 355 2 3 360 358 353 347 344
203 204 205 207 208 210 213 215 217 220 222 224 227 229 230 232 233 234 235 237 238 239 239 238 238 239 237 236 237 237 235 235 234 236 238 241 244 245 246 247 247 249 252 252 256 266 272 275 275 270 269 272 274 277 281 288 295 288 271 274 283 283 281 278 278 276 276 285 299 312 323 327 329 334 339 341 344 349 351 349 347 349 349 345 342
201 203 204 206 207 208 210 213 215 217 220 222 225 227 230 234 236 236 237 238 240 240 238 237 238 239 239 239 239 239 238 238 237 237 240 242 245 248 248 247 248 250 253 253 253 259 265 268 269 269 274 280 282 282 285 288 288 284 281 286 290 288 283 281 284 282 277 280 292 305 315 319 324 330 336 339 341 344 345 344 343 346 346 345 346
200 201 203 204 206 209 210 212 215 217 219 221 224 226 230 234 237 237 237 238 239 240 237 236 236 238 241 242 242 242 242 242 241 241 241 243 246 248 247 247 249 252 254 255 256 259 262 265 266 264 265 273 279 280 283 287 287 284 283 286 290 288 280 277 281 281 279 283 289 298 308 315 321 327 332 336 337 339 342 341 339 342 343 342 344
200 200 202 204 205 209 211 213 215 218 220 222 224 227 229 233 237 239 239 239 238 238 237 237 237 238 240 241 241 243 243 243 242 240 241 244 247 248 246 245 248 251 254 256 257 258 260 262 263 258 254 260 268 273 279 284 284 282 280 282 287 288 284 280 278 277 278 281 284 291 304 313 317 322 328 334 336 340 343 338 333 337 341 340 341
199 199 204 207 207 210 212 215 217 220 224 226 227 228 230 232 237 241 241 239 238 237 236 237 239 239 240 240 240 240 240 240 240 240 242 244 245 245 245 245 247 251 255 255 252 253 256 257 257 255 255 258 262 266 271 275 277 277 275 277 281 284 287 285 281 276 273 274 282 294 304 309 314 321 328 335 338 340 343 335 327 331 336 337 340
199 199 204 208 210 211 214 217 220 224 227 229 229 229 230 233 236 239 239 237 237 239 240 240 241 241 240 240 240 239 239 239 239 240 242 242 242 244 245 246 248 252 254 253 249 249 252 254 254 258 261 263 264 265 266 268 272 275 275 276 279 281 284 284 279 272 268 271 286 299 306 309 317 325 328 333 335 334 338 336 328 330 335 336 342
197 197 198 202 208 211 213 215 220 225 227 229 230 230 230 232 235 237 239 239 238 240 241 241 241 243 242 241 241 240 240 242 242 242 243 244 245 245 246 247 248 251 254 252 250 252 255 255 257 261 264 264 264 263 263 265 269 272 277 280 282 283 283 281 276 269 265 274 291 303 305 308 317 324 323 328 334 334 338 338 331 333 337 337 339
195 197 196 199 204 208 209 209 214 223 229 230 230 231 231 231 234 236 238 241 243 243 242 240 240 241 242 243 243 243 243 244 245 246 248 248 248 247 247 248 248 250 253 252 253 256 256 256 256 257 258 259 260 262 264 266 267 268 271 274 278 282 280 275 271 267 267 276 290 297 297 303 315 323 325 330 336 337 339 339 335 336 338 335 330
194 197 198 198 199 201 204 205 207 219 237 236 227 226 227 229 236 244 242 241 244 244 242 241 240 239 239 241 243 244 245 247 248 250 250 249 248 247 247 248 248 249 250 252 255 258 258 257 255 255 257 259 262 263 262 261 263 266 267 268 275 282 280 272 267 266 271 279 287 291 297 305 312 320 329 334 336 338 341 343 343 339 336 329 321
187 191 195 195 195 197 199 201 201 205 227 248 233 221 217 218 230 259 257 243 240 240 237 236 236 236 236 238 241 243 244 246 248 250 250 249 248 247 247 249 250 248 248 250 253 256 258 258 257 258 261 259 255 251 247 249 258 268 269 269 275 281 280 271 261 262 270 278 284 290 304 313 313 316 329 336 334 337 339 339 341 340 333 328 324
173 176 181 186 193 196 196 197 199 199 206 233 250 232 214 203 202 220 245 234 227 228 231 233 233 233 234 236 240 243 244 246 248 249 249 249 248 246 246 250 250 249 249 250 251 254 257 257 259 262 260 251 243 239 241 247 257 262 261 262 269 274 277 273 263 262 264 265 270 281 296 309 309 310 321 326 324 327 328 330 336 336 330 330 328
175 178 174 179 189 191 191 196 202 205 208 219 246 251 231 197 187 200 220 226 219 211 215 225 231 233 233 234 237 241 243 246 248 248 249 249 247 245 245 247 249 250 252 252 252 254 255 257 260 259 249 239 237 237 239 244 248 248 250 258 270 274 275 275 270 264 258 253 264 282 290 291 295 301 306 309 312 318 323 327 332 330 330 337 338
175 181 183 187 195 194 194 200 205 211 218 222 236 251 245 214 208 217 223 233 235 224 215 217 220 224 229 232 234 237 240 243 245 245 245 245 244 244 244 244 246 248 251 252 252 254 254 255 256 248 236 234 238 236 236 240 243 247 251 257 264 265 263 261 259 261 265 270 277 284 287 287 293 300 304 306 312 319 322 324 328 333 341 351 349
128 149 163 169 176 182 191 203 204 203 205 203 210 226 226 213 218 222 218 225 234 232 226 225 225 224 227 229 231 233 236 239 241 242 242 241 242 242 243 243 245 247 249 251 255 257 253 248 243 236 230 232 233 233 236 241 246 251 255 253 247 244 240 236 239 251 271 288 292 287 285 286 293 302 308 318 325 325 326 330 339 349 356 1 347
106 122 130 142 163 180 193 208 209 201 204 213 218 222 219 210 212 215 215 222 231 236 237 237 236 236 238 239 238 239 241 243 244 245 245 244 244 244 245 247 248 249 250 252 255 253 243 236 232 229 229 229 229 231 237 242 247 252 254 249 235 224 222 225 234 247 264 286 290 277 283 307 351 356 346 349 345 343 355 6 12 14 16 14 350
107 119 119 140 178 183 164 171 179 175 200 231 238 235 231 227 226 226 226 231 236 240 243 244 244 244 246 246 244 244 248 253 256 254 250 248 248 248 249 250 251 251 252 251 248 237 225 223 223 222 224 225 225 230 235 240 248 250 249 245 233 221 221 227 236 247 259 272 272 205 121 96 86 75 64 57 54 52 49 46 43 40 39 32 16
108 115 118 124 138 141 121 102 101 129 159 196 220 229 233 235 238 238 238 239 241 243 244 246 248 249 249 248 246 246 248 251 255 255 253 253 254 254 254 254 254 252 247 241 236 226 218 219 221 218 219 223 224 227 232 236 240 239 238 239 234 225 221 225 232 240 246 237 145 129 122 115 106 98 94 90 81 73 66 61 54 48 49 52 51
103 107 109 108 105 103 98 85 83 118 156 182 215 228 230 231 232 235 238 239 240 243 244 245 248 251 250 248 245 245 245 244 247 251 253 257 259 259 258 257 257 256 248 237 231 226 220 218 218 217 217 221 223 225 228 228 227 226 227 228 230 227 223 222 222 209 169 141 132 127 119 110 99 91 92 92 85 74 66 61 52 49 59 69 72
92 98 103 105 101 99 97 90 83 82 86 113 194 211 219 228 226 226 232 239 241 242 243 246 247 246 244 237 231 229 230 235 242 250 256 261 263 262 259 255 250 251 250 239 226 223 221 217 213 213 214 218 222 224 225 224 220 221 223 223 223 222 216 206 180 149 138 134 129 119 106 95 88 83 84 85 77 68 65 67 66 69 74 75 72
83 88 94 98 98 98 98 95 88 83 80 81 81 68 53 23 243 225 227 233 234 230 231 234 229 211 191 190 190 182 189 222 243 256 265 269 270 267 262 254 243 239 239 230 215 212 214 211 206 205 207 210 215 217 218 219 216 217 222 222 219 212 194 168 151 142 136 130 121 107 97 91 86 83 81 80 78 74 75 79 80 81 81 75 69
76 77 80 84 87 91 93 92 89 84 79 75 69 62 58 56 57 133 194 194 190 184 182 181 166 139 128 131 126 111 99 283 277 285 291 293 289 283 275 265 254 243 235 230 221 210 201 196 194 195 196 197 200 202 208 214 214 215 217 213 201 185 168 155 148 141 132 122 111 102 95 91 86 83 81 81 82 81 78 81 82 80 77 72 66
68 70 73 76 80 83 83 82 81 77 74 71 65 60 57 57 61 72 98 134 152 151 145 146 139 124 115 111 102 97 94 84 60 8 344 326 313 316 314 296 278 250 224 218 215 208 197 190 186 185 186 187 187 190 196 198 196 196 197 190 177 167 159 151 144 136 124 115 109 103 96 90 86 85 83 80 79 73 69 72 75 69 65 62 58
60 66 71 73 72 70 68 67 66 65 66 64 63 61 56 53 57 68 80 93 112 123 120 119 115 109 107 106 101 99 99 91 79 63 45 28 10 3 8 10 5 2 181 187 190 191 190 183 174 171 176 177 174 174 173 170 170 173 175 171 165 160 155 150 142 131 120 114 109 103 98 94 92 87 79 67 63 62 58 57 56 53 45 37 39
61 65 68 68 65 61 59 58 56 57 59 59 64 70 65 57 57 66 81 93 101 106 101 93 89 90 93 96 98 97 92 85 77 69 55 39 31 25 22 25 27 25 50 144 167 177 177 170 165 167 170 168 164 163 161 162 164 163 160 159 157 153 151 146 138 128 120 115 111 106 103 101 95 83 74 70 72 71 64 56 53 50 40 27 31
62 66 67 67 67 67 69 69 66 67 67 66 70 76 80 77 71 70 81 93 98 98 97 92 87 86 85 85 88 87 79 70 62 53 42 30 25 23 25 28 30 36 72 121 149 159 165 171 171 169 166 161 156 154 152 153 153 151 149 148 147 144 141 137 130 123 120 118 115 112 108 101 94 90 88 86 83 77 68 61 57 52 43 36 39
59 65 69 73 74 73 73 72 70 71 73 74 74 73 77 84 86 84 86 93 96 97 100 99 95 92 87 81 77 71 64 54 40 27 18 12 7 5 10 19 23 28 45 107 154 161 166 168 164 159 155 150 146 143 143 142 141 140 141 141 139 137 135 131 125 121 121 119 116 113 110 105 101 100 96 89 83 76 67 61 56 50 44 43 46
56 66 71 74 75 73 71 71 71 72 74 77 79 78 75 78 87 90 91 93 96 100 104 102 96 89 81 72 64 56 45 31 19 10 359 355 352 350 358 8 15 19 26 62 127 146 158 162 159 157 153 147 142 139 139 138 137 135 135 135 135 133 130 126 122 120 117 115 113 112 112 109 106 102 94 87 82 74 65 59 53 47 45 45 45
49 67 72 74 77 77 76 75 73 72 78 83 85 87 87 82 81 84 87 89 90 92 94 93 88 77 57 39 25 17 6 357 354 344 331 329 334 341 348 354 6 18 35 88 105 110 123 132 141 148 149 144 140 138 137 137 135 132 131 130 130 129 126 121 120 119 115 113 113 112 111 108 104 98 90 84 78 70 61 54 48 44 44 45 42
52 98 88 82 86 90 90 86 75 71 83 95 95 96 98 95 89 88 91 91 90 90 91 89 86 79 64 46 31 19 15 15 2 352 351 353 354 354 352 355 20 37 69 105 98 91 95 102 111 126 135 134 133 134 135 133 132 131 130 127 124 124 122 120 121 121 118 115 114 111 108 106 102 96 87 78 70 63 55 48 44 41 38 37 36
57 147 242 277 329 113 136 126 95 79 87 107 116 114 110 109 110 110 109 104 97 94 94 87 77 72 68 61 56 56 59 63 55 44 44 45 45 44 44 57 73 81 103 103 93 87 90 95 99 109 118 121 124 127 127 126 128 129 127 125 123 122 122 124 126 122 117 115 112 110 107 105 100 93 84 74 65 59 53 46 40 34 29 26 25
334 308 285 284 288 289 285 278 265 192 138 133 136 137 136 144 145 138 131 124 112 98 91 83 72 69 72 75 75 75 73 69 67 69 72 72 70 75 81 86 91 98 104 100 92 88 90 94 96 102 108 112 117 120 120 121 124 125 123 123 123 123 125 127 125 121 117 115 113 111 108 104 96 88 82 75 64 55 48 40 30 25 22 20 14
284 282 282 281 282 285 292 296 297 284 248 186 159 149 147 164 176 172 158 144 133 115 96 84 75 72 75 78 78 77 77 77 77 79 81 82 82 86 93 93 90 89 91 92 91 90 91 94 97 101 105 109 112 116 117 119 122 123 124 124 124 124 126 125 122 120 119 116 113 111 108 102 94 85 78 71 59 48 39 32 24 19 18 13 6
268 272 281 286 284 283 286 289 289 283 274 273 281 149 143 157 181 188 180 164 151 138 115 96 87 84 84 83 81 80 80 82 82 79 76 79 84 89 94 94 91 87 86 89 91 93 94 95 98 102 106 110 112 115 118 120 121 123 124 124 123 122 121 119 118 117 114 110 106 104 101 95 86 78 69 60 52 43 33 24 18 14 12 8 1
264 270 282 299 297 284 274 273 275 267 258 266 295 308 152 149 169 183 184 178 167 153 133 115 105 100 96 93 89 86 83 83 83 81 80 81 83 86 90 94 94 92 90 90 93 94 94 95 98 102 106 109 112 116 119 120 121 122 121 121 120 117 114 113 113 110 105 100 94 88 84 79 70 59 51 44 40 33 23 15 10 6 4 1 358
264 268 275 298 304 285 258 252 263 266 254 255 270 282 186 164 160 171 178 179 174 162 146 127 110 103 102 102 102 100 95 90 88 90 91 90 88 89 92 94 96 96 95 94 95 95 93 93 95 98 101 104 108 112 115 117 118 119 120 118 117 115 112 110 106 101 96 90 83 75 69 63 56 46 37 31 26 20 13 7 3 358 355 354 354
268 271 272 288 296 274 244 244 262 274 274 254 230 212 191 178 171 170 172 172 167 160 150 130 104 92 96 109 123 130 119 102 95 96 98 97 97 98 98 97 97 98 98 98 97 97 96 95 95 96 96 97 100 104 108 113 114 116 118 118 116 112 109 103 96 91 86 80 73 65 56 48 43 35 25 19 15 10 5 1 357 355 352 351 352
270 269 265 277 285 264 240 243 259 267 277 256 194 185 178 176 177 174 172 167 158 148 140 123 99 82 83 102 125 139 120 105 102 102 102 102 102 103 103 102 101 100 100 100 101 100 99 98 97 96 96 95 96 100 105 110 113 113 113 112 109 103 97 92 87 80 73 65 57 48 39 31 24 17 12 7 4 0 357 353 350 350 350 350 352
270 268 262 265 273 262 246 245 251 250 240 200 176 174 172 173 173 171 168 163 154 142 129 112 94 78 73 85 109 139 121 113 111 109 106 105 106 106 106 106 105 104 103 103 102 102 102 100 96 94 94 93 95 100 106 111 115 115 112 109 104 96 88 81 73 66 59 50 41 32 24 16 9 4 360 356 351 347 343 342 342 345 348 352 356
264 264 260 257 258 252 240 234 232 228 218 193 171 167 171 173 174 172 167 162 153 142 126 113 104 98 98 107 124 135 126 120 117 116 113 111 110 110 109 109 108 107 107 105 100 97 98 96 92 89 87 88 93 99 102 105 108 110 109 104 97 90 81 71 62 54 45 35 26 17 9 2 356 350 346 343 339 336 336 339 344 348 350 354 357
258 259 255 252 251 247 235 224 218 217 215 202 182 174 173 175 178 178 173 165 157 147 134 124 119 118 120 126 132 131 126 123 121 120 119 118 116 115 116 116 115 115 115 113 108 103 99 95 93 88 85 87 89 88 90 94 97 98 99 94 85 78 69 58 47 37 26 17 10 2 355 350 344 339 337 336 335 338 343 347 349 352 353 355 356
251 255 253 248 248 248 239 227 220 219 218 207 193 187 182 178 183 185 179 169 161 154 145 137 133 130 129 131 132 130 127 127 126 126 125 124 121 121 123 126 128 130 131 128 125 123 117 111 110 106 101 98 93 88 90 97 97 90 86 80 71 63 53 40 30 21 11 3 357 351 345 341 338 337 339 341 344 347 350 351 352 353 353 352 347
245 249 251 248 244 242 237 231 225 222 218 212 205 201 193 187 188 187 180 172 165 159 155 151 146 142 139 138 136 133 131 131 131 130 129 127 123 122 127 132 135 137 138 136 138 141 140 135 131 125 120 117 113 110 112 113 105 92 78 65 54 45 36 25 14 5 356 349 346 342 338 336 339 342 344 348 349 347 346 347 349 348 345 338 329
244 245 248 247 241 233 229 229 225 220 216 217 216 211 200 193 190 185 178 172 167 164 162 160 155 151 146 143 141 140 137 137 137 134 131 129 125 122 123 125 127 128 127 128 133 141 146 147 143 138 134 133 129 126 124 115 101 87 69 53 40 29 18 8 357 350 344 340 338 337 334 335 340 343 345 347 344 338 339 344 344 346 346 336 324
249 248 248 245 236 227 223 222 218 213 211 211 209 205 199 193 189 182 176 172 169 168 168 166 162 158 152 146 144 144 144 145 145 143 139 136 132 129 126 123 121 119 114 112 119 130 143 150 148 140 136 134 129 122 116 103 88 74 56 39 24 11 3 355 347 344 343 341 340 339 335 336 339 341 343 343 336 331 337 344 347 355 357 345 331
252 249 243 236 228 221 219 216 211 207 205 202 199 198 195 191 186 182 178 174 171 170 170 170 167 163 157 151 149 149 149 150 150 149 148 149 146 144 142 131 121 120 111 101 107 118 133 146 149 141 134 130 123 114 106 92 76 60 39 23 11 3 358 356 355 356 356 353 349 344 338 337 339 339 337 336 332 330 340 350 357 4 3 349 337
252 242 230 223 216 212 211 210 206 204 203 200 197 195 191 185 183 184 183 180 177 177 178 178 175 169 162 157 156 157 156 155 153 151 152 155 157 158 155 129 101 92 75 76 114 132 144 154 153 143 133 125 114 103 91 73 57 42 25 15 11 9 11 13 13 10 4 357 352 349 341 337 338 336 335 335 336 342 357 7 9 8 1 349 343
248 231 218 213 211 211 214 213 207 202 199 195 192 189 184 180 181 184 184 181 179 179 180 179 175 171 167 164 164 164 162 159 157 155 154 156 158 159 160 137 29 28 49 103 122 131 145 156 155 142 129 120 106 90 75 58 42 28 18 16 19 22 23 21 18 14 10 4 358 353 345 339 339 341 342 346 352 7 14 14 8 359 351 345 346
218 205 200 202 206 210 212 208 198 190 184 179 178 179 180 181 183 184 182 180 179 179 179 179 175 172 171 170 170 169 165 161 160 158 157 156 156 152 144 141 140 133 133 131 121 122 138 151 149 134 118 109 96 78 62 44 27 17 19 27 31 25 19 16 14 13 13 11 9 5 1 356 355 357 358 1 10 17 13 3 351 342 340 343 347